KS4XQ Weather Reports


Display with metric or nautical units.
time (UTC)temp
F
wind
direction
speed
MPH
gust
MPH
rain 1hr
in
rain 24hr
in
rain mn
in
humidity
%
barometer
mb
20260903214206 94 209 2.0 5.0 0.00 0.00 0.00 56 1015.8
20260903214008 94 211 2.0 5.0 0.00 0.00 0.00 55 1015.8
20260903213806 94 207 2.0 4.0 0.00 0.00 0.00 55 1015.8
20260903213609 95 209 2.0 4.0 0.00 0.00 0.00 55 1015.8
20260903213406 95 196 2.0 4.0 0.00 0.00 0.00 55 1015.8
20260903213207 95 196 2.0 4.0 0.00 0.00 0.00 55 1015.8
20260903213006 95 211 2.0 4.0 0.00 0.00 0.00 55 1015.8
20260903212406 95 219 1.0 4.0 0.00 0.00 0.00 54 1015.8
20260903212206 95 198 1.0 3.0 0.00 0.00 0.00 55 1015.9
20260903212006 95 179 1.0 3.0 0.00 0.00 0.00 55 1015.8
20260903211806 95 178 1.0 3.0 0.00 0.00 0.00 55 1015.8
20260903211608 95 157 1.0 3.0 0.00 0.00 0.00 55 1015.9
20260903211406 95 142 1.0 4.0 0.00 0.00 0.00 55 1015.9
20260903211208 95 178 1.0 4.0 0.00 0.00 0.00 55 1015.9
20260903211006 95 133 1.0 4.0 0.00 0.00 0.00 55 1015.9
20260903210806 95 169 1.0 4.0 0.00 0.00 0.00 54 1015.9
20260903210608 95 181 1.0 4.0 0.00 0.00 0.00 55 1016.0
20260903210209 95 248 1.0 4.0 0.00 0.00 0.00 55 1015.9
20260903210012 95 134 1.0 4.0 0.00 0.00 0.00 54 1015.9
20260903205407 95 22 1.0 4.0 0.00 0.00 0.00 55 1016.0
20260903205208 95 104 1.0 4.0 0.00 0.00 0.00 52 1015.9
20260903205006 95 324 1.0 4.0 0.00 0.00 0.00 53 1015.9
20260903204608 95 169 1.0 4.0 0.00 0.00 0.00 54 1015.9
20260903204406 95 152 1.0 4.0 0.00 0.00 0.00 54 1016.0
20260903204006 94 199 1.0 4.0 0.00 0.00 0.00 56 1016.0
20260903203608 95 174 0.0 1.0 0.00 0.00 0.00 59 1016.0
20260903203406 95 254 0.0 0.0 0.00 0.00 0.00 58 1016.0
20260903203006 95 254 0.0 0.0 0.00 0.00 0.00 59 1016.2
20260903202608 96 254 0.0 2.0 0.00 0.00 0.00 56 1016.3
20260903202006 97 254 0.0 2.0 0.00 0.00 0.00 55 1016.3
20260903201806 97 322 0.0 2.0 0.00 0.00 0.00 53 1016.4
20260903201408 97 84 1.0 3.0 0.00 0.00 0.00 52 1016.4
20260903201208 97 84 1.0 4.0 0.00 0.00 0.00 50 1016.4
20260903201006 97 11 1.0 4.0 0.00 0.00 0.00 50 1016.5
20260903200806 98 80 1.0 4.0 0.00 0.00 0.00 50 1016.5
20260903200608 98 77 1.0 4.0 0.00 0.00 0.00 49 1016.5
20260903200406 98 47 1.0 4.0 0.00 0.00 0.00 49 1016.5
20260903200208 98 56 1.0 4.0 0.00 0.00 0.00 50 1016.5
20260903200008 98 38 1.0 4.0 0.00 0.00 0.00 51 1016.5
20260903195806 99 217 1.0 2.0 0.00 0.00 0.00 50 1016.5
20260903195609 98 217 1.0 2.0 0.00 0.00 0.00 51 1016.5
20260903195406 98 216 1.0 3.0 0.00 0.00 0.00 50 1016.5
20260903195206 99 167 1.0 3.0 0.00 0.00 0.00 51 1016.5
20260903195006 98 208 1.0 3.0 0.00 0.00 0.00 52 1016.6
20260903194807 98 28 1.0 3.0 0.00 0.00 0.00 51 1016.6
20260903194609 99 47 1.0 5.0 0.00 0.00 0.00 48 1016.6
20260903194407 99 348 1.0 5.0 0.00 0.00 0.00 49 1016.7
20260903194206 99 348 1.0 5.0 0.00 0.00 0.00 48 1016.7
20260903193806 99 187 1.0 5.0 0.00 0.00 0.00 49 1016.7
20260903193609 98 200 1.0 4.0 0.00 0.00 0.00 51 1016.7
20260903193406 98 142 1.0 4.0 0.00 0.00 0.00 50 1016.7
20260903193206 98 208 1.0 4.0 0.00 0.00 0.00 52 1016.8
20260903192806 99 293 0.0 4.0 0.00 0.00 0.00 49 1016.8
20260903192607 99 163 0.0 1.0 0.00 0.00 0.00 51 1016.8
20260903192411 99 141 0.0 3.0 0.00 0.00 0.00 49 1016.9
20260903192006 100 170 1.0 5.0 0.00 0.00 0.00 48 1016.9
20260903191806 100 164 1.0 5.0 0.00 0.00 0.00 47 1016.9
20260903191608 100 164 1.0 5.0 0.00 0.00 0.00 47 1017.0
20260903191208 100 234 1.0 4.0 0.00 0.00 0.00 46 1017.0
20260903191006 100 49 1.0 4.0 0.00 0.00 0.00 48 1017.0
20260903190806 100 17 2.0 4.0 0.00 0.00 0.00 47 1017.0
20260903190406 101 157 2.0 4.0 0.00 0.00 0.00 46 1017.0
20260903190208 101 202 2.0 4.0 0.00 0.00 0.00 49 1017.0
20260903190008 101 250 2.0 4.0 0.00 0.00 0.00 47 1017.1
20260903185807 101 304 2.0 5.0 0.00 0.00 0.00 47 1017.1
20260903185608 101 261 2.0 8.0 0.00 0.00 0.00 46 1017.2
20260903185406 101 224 2.0 8.0 0.00 0.00 0.00 49 1017.3
20260903185208 101 205 2.0 8.0 0.00 0.00 0.00 48 1017.3
20260903185008 101 214 2.0 8.0 0.00 0.00 0.00 48 1017.3
20260903184808 101 216 1.0 5.0 0.00 0.00 0.00 46 1017.3
20260903180806 98 232 1.0 4.0 0.00 0.00 0.00 53 1017.6
20260903180608 97 328 2.0 4.0 0.00 0.00 0.00 52 1017.6
20260903180406 97 281 2.0 4.0 0.00 0.00 0.00 51 1017.6
20260903180208 97 270 2.0 4.0 0.00 0.00 0.00 53 1017.7
20260903180008 97 257 1.0 3.0 0.00 0.00 0.00 50 1017.7
20260903175806 97 217 1.0 3.0 0.00 0.00 0.00 51 1017.7
20260903175610 97 186 1.0 3.0 0.00 0.00 0.00 53 1017.7
20260903175406 97 78 1.0 3.0 0.00 0.00 0.00 50 1017.7
20260903175206 97 74 1.0 3.0 0.00 0.00 0.00 51 1017.7
20260903174806 97 102 0.0 2.0 0.00 0.00 0.00 52 1017.8
20260903174609 98 84 0.0 2.0 0.00 0.00 0.00 51 1017.8
20260903174407 98 182 0.0 2.0 0.00 0.00 0.00 51 1017.8
20260903174007 98 223 0.0 1.0 0.00 0.00 0.00 50 1017.8
20260903173807 98 223 0.0 3.0 0.00 0.00 0.00 51 1017.9
20260903173609 98 223 1.0 6.0 0.00 0.00 0.00 51 1017.9
20260903173406 98 223 1.0 6.0 0.00 0.00 0.00 50 1017.9
20260903173206 98 186 1.0 6.0 0.00 0.00 0.00 51 1017.9
20260903172806 98 126 1.0 2.0 0.00 0.00 0.00 53 1017.9
20260903172609 98 79 1.0 2.0 0.00 0.00 0.00 50 1018.0
20260903172406 98 227 1.0 3.0 0.00 0.00 0.00 52 1017.9
20260903172206 98 149 1.0 3.0 0.00 0.00 0.00 52 1017.9
20260903172006 98 173 1.0 3.0 0.00 0.00 0.00 52 1018.0
20260903171806 98 204 1.0 4.0 0.00 0.00 0.00 53 1017.9
20260903171610 98 223 1.0 4.0 0.00 0.00 0.00 50 1018.0
20260903171406 98 244 1.0 4.0 0.00 0.00 0.00 52 1018.1
20260903171206 98 121 1.0 4.0 0.00 0.00 0.00 53 1018.1
20260903171006 97 192 2.0 4.0 0.00 0.00 0.00 54 1018.1
20260903170808 97 160 2.0 5.0 0.00 0.00 0.00 53 1018.1
20260903170607 97 159 2.0 5.0 0.00 0.00 0.00 54 1018.2
20260903170408 96 207 1.0 5.0 0.00 0.00 0.00 54 1018.2
20260903170206 96 211 1.0 5.0 0.00 0.00 0.00 52 1018.2
20260903165805 96 173 0.0 3.0 0.00 0.00 0.00 55 1018.3
20260903165607 96 207 0.0 3.0 0.00 0.00 0.00 57 1018.3
20260903165405 95 181 0.0 0.0 0.00 0.00 0.00 56 1018.2
20260903165205 95 90 0.0 0.0 0.00 0.00 0.00 55 1018.2
20260903165007 95 310 0.0 2.0 0.00 0.00 0.00 57 1018.3
20260903164805 96 310 0.0 3.0 0.00 0.00 0.00 55 1018.3
20260903164405 96 275 1.0 3.0 0.00 0.00 0.00 53 1018.4
20260903164205 97 275 1.0 3.0 0.00 0.00 0.00 52 1018.4
20260903164005 97 223 1.0 3.0 0.00 0.00 0.00 53 1018.5
20260903163805 96 278 1.0 4.0 0.00 0.00 0.00 52 1018.5
20260903163405 96 127 1.0 4.0 0.00 0.00 0.00 55 1018.6
20260903163207 96 267 0.0 4.0 0.00 0.00 0.00 53 1018.6
20260903163005 96 236 0.0 1.0 0.00 0.00 0.00 56 1018.6
20260903162805 96 5 0.0 0.0 0.00 0.00 0.00 51 1018.6
20260903162607 96 65 0.0 0.0 0.00 0.00 0.00 54 1018.7
20260903162405 96 360 0.0 0.0 0.00 0.00 0.00 55 1018.6
20260903162208 96 59 0.0 0.0 0.00 0.00 0.00 53 1018.6
20260903162005 96 88 0.0 0.0 0.00 0.00 0.00 56 1018.5
20260903161605 96 265 0.0 0.0 0.00 0.00 0.00 56 1018.6
20260903161405 96 15 0.0 0.0 0.00 0.00 0.00 57 1018.6
20260903161208 96 213 0.0 0.0 0.00 0.00 0.00 56 1018.6
20260903161006 95 143 0.0 0.0 0.00 0.00 0.00 60 1018.6
20260903160805 95 44 0.0 0.0 0.00 0.00 0.00 58 1018.7
20260903160405 95 232 0.0 0.0 0.00 0.00 0.00 58 1018.7
20260903160209 95 217 0.0 0.0 0.00 0.00 0.00 57 1018.7
20260903160008 95 195 0.0 0.0 0.00 0.00 0.00 60 1018.6
20260903155806 94 221 0.0 0.0 0.00 0.00 0.00 58 1018.6
20260903155406 94 228 0.0 0.0 0.00 0.00 0.00 61 1018.6
20260903155006 94 61 0.0 0.0 0.00 0.00 0.00 63 1018.7
20260903154806 94 61 0.0 0.0 0.00 0.00 0.00 60 1018.8
20260903154407 93 171 0.0 0.0 0.00 0.00 0.00 63 1018.8
20260903154209 93 89 0.0 0.0 0.00 0.00 0.00 64 1018.7
20260903154006 93 240 0.0 0.0 0.00 0.00 0.00 62 1018.9
20260903153806 92 196 0.0 0.0 0.00 0.00 0.00 63 1018.7
20260903153606 92 171 0.0 0.0 0.00 0.00 0.00 65 1018.7
20260903153406 92 199 0.0 0.0 0.00 0.00 0.00 67 1018.8
20260903153209 91 155 0.0 0.0 0.00 0.00 0.00 66 1018.8
20260903153006 91 155 0.0 0.0 0.00 0.00 0.00 66 1018.8
20260903152806 91 107 0.0 0.0 0.00 0.00 0.00 69 1018.7
20260903152606 90 70 0.0 0.0 0.00 0.00 0.00 67 1018.8
20260903152406 90 65 0.0 0.0 0.00 0.00 0.00 66 1018.8
20260903152209 90 86 0.0 0.0 0.00 0.00 0.00 70 1018.8
20260903151806 89 294 0.0 0.0 0.00 0.00 0.00 69 1018.7
20260903151606 89 247 0.0 0.0 0.00 0.00 0.00 69 1018.7
20260903151406 89 210 0.0 0.0 0.00 0.00 0.00 71 1018.7
20260903151208 88 210 0.0 0.0 0.00 0.00 0.00 72 1018.6
20260903151008 88 186 0.0 0.0 0.00 0.00 0.00 72 1018.7
20260903150811 88 186 0.0 0.0 0.00 0.00 0.00 72 1018.7
20260903150606 87 150 0.0 0.0 0.00 0.00 0.00 71 1018.7
20260903150406 87 53 0.0 0.0 0.00 0.00 0.00 71 1018.6
20260903150206 86 63 0.0 0.0 0.00 0.00 0.00 74 1018.7
20260903150007 86 74 0.0 0.0 0.00 0.00 0.00 73 1018.6
20260903145808 86 153 0.0 0.0 0.00 0.00 0.00 76 1018.7
20260903145605 85 211 0.0 0.0 0.00 0.00 0.00 78 1018.6
20260903145405 85 73 0.0 0.0 0.00 0.00 0.00 80 1018.7
20260903145207 85 73 0.0 0.0 0.00 0.00 0.00 80 1018.7
20260903145005 85 324 0.0 0.0 0.00 0.00 0.00 79 1018.6
20260903144808 84 289 0.0 0.0 0.00 0.00 0.00 80 1018.7
20260903144605 84 289 0.0 0.0 0.00 0.00 0.00 80 1018.6
20260903144205 83 72 0.0 0.0 0.00 0.00 0.00 84 1018.8
20260903144005 83 82 0.0 0.0 0.00 0.00 0.00 84 1018.7
20260903143808 82 355 0.0 0.0 0.00 0.00 0.00 85 1018.7
20260903143205 81 297 0.0 0.0 0.00 0.00 0.00 84 1018.8
20260903143005 81 273 0.0 0.0 0.00 0.00 0.00 84 1018.7
20260903142807 81 255 0.0 0.0 0.00 0.00 0.00 85 1018.7
20260903142605 80 337 0.0 0.0 0.00 0.00 0.00 87 1018.7
20260903142205 80 53 0.0 0.0 0.00 0.00 0.00 89 1018.6
20260903142007 79 53 0.0 0.0 0.00 0.00 0.00 88 1018.8
20260903141605 79 89 0.0 0.0 0.00 0.00 0.00 86 1018.6
20260903141205 79 107 0.0 0.0 0.00 0.00 0.00 90 1018.8
20260903141007 78 107 0.0 0.0 0.00 0.00 0.00 89 1018.8
20260903140805 78 50 0.0 0.0 0.00 0.00 0.00 91 1018.8
20260903140606 78 102 0.0 0.0 0.00 0.00 0.00 91 1018.8
20260903140410 78 256 0.0 0.0 0.00 0.00 0.00 90 1018.8
20260903140205 78 256 0.0 0.0 0.00 0.00 0.00 92 1018.7
20260903140006 78 256 0.0 0.0 0.00 0.00 0.00 90 1018.7
20260903135806 77 256 0.0 0.0 0.00 0.00 0.00 94 1018.7
20260903135605 77 256 0.0 0.0 0.00 0.00 0.00 93 1018.7
20260903135408 77 256 0.0 0.0 0.00 0.00 0.00 92 1018.7
20260903135205 77 256 0.0 0.0 0.00 0.00 0.00 92 1018.8
20260903135005 77 256 0.0 0.0 0.00 0.00 0.00 95 1018.8
20260903134805 77 256 0.0 0.0 0.00 0.00 0.00 95 1018.8
20260903134605 76 256 0.0 0.0 0.00 0.00 0.00 95 1018.8
20260903134204 76 256 0.0 0.0 0.00 0.00 0.00 95 1018.8
20260903134007 76 256 0.0 0.0 0.00 0.00 0.00 95 1018.9
20260903133805 76 256 0.0 0.0 0.00 0.00 0.00 95 1018.9
20260903133605 76 256 0.0 0.0 0.00 0.00 0.00 95 1018.9
20260903133406 76 256 0.0 0.0 0.00 0.00 0.00 96 1018.9
20260903133207 76 256 0.0 0.0 0.00 0.00 0.00 96 1018.9
20260903133007 75 256 0.0 0.0 0.00 0.00 0.00 96 1019.0
20260903132806 75 256 0.0 0.0 0.00 0.00 0.00 96 1018.9
20260903132605 75 256 0.0 0.0 0.00 0.00 0.00 96 1018.9
20260903132205 75 256 0.0 0.0 0.00 0.00 0.00 96 1018.9
20260903132006 75 256 0.0 0.0 0.00 0.00 0.00 96 1018.9
20260903131605 75 256 0.0 0.0 0.00 0.00 0.00 96 1018.9
20260903131407 74 256 0.0 0.0 0.00 0.00 0.00 96 1019.0
20260903131205 74 256 0.0 0.0 0.00 0.00 0.00 96 1019.0
20260903130805 74 256 0.0 0.0 0.00 0.00 0.00 96 1018.9
20260903130608 74 256 0.0 0.0 0.00 0.00 0.00 96 1019.0
20260903130406 74 256 0.0 0.0 0.00 0.00 0.00 96 1019.0
20260903130205 74 256 0.0 0.0 0.00 0.00 0.00 96 1019.0
20260903130011 74 256 0.0 0.0 0.00 0.00 0.00 96 1019.0
20260903125805 73 256 0.0 0.0 0.00 0.00 0.00 96 1019.0
20260903125605 73 256 0.0 0.0 0.00 0.00 0.00 96 1019.1
20260903125209 73 256 0.0 0.0 0.00 0.00 0.00 95 1019.0
20260903125005 73 256 0.0 0.0 0.00 0.00 0.00 95 1019.0
20260903124807 73 256 0.0 0.0 0.00 0.00 0.00 95 1019.0
20260903124605 73 256 0.0 0.0 0.00 0.00 0.00 95 1019.0
20260903124408 73 256 0.0 0.0 0.00 0.00 0.00 95 1019.0
20260903124205 72 256 0.0 0.0 0.00 0.00 0.00 95 1019.0
20260903124005 72 256 0.0 0.0 0.00 0.00 0.00 95 1019.0
20260903123806 72 256 0.0 0.0 0.00 0.00 0.00 95 1019.0
20260903123606 72 256 0.0 0.0 0.00 0.00 0.00 94 1019.0
20260903123410 72 256 0.0 0.0 0.00 0.00 0.00 94 1019.0
20260903123205 72 256 0.0 0.0 0.00 0.00 0.00 94 1018.9
20260903122805 72 256 0.0 0.0 0.00 0.00 0.00 94 1019.0
20260903122606 72 256 0.0 0.0 0.00 0.00 0.00 94 1019.0
20260903122408 72 256 0.0 0.0 0.00 0.00 0.00 94 1019.0
20260903122205 72 256 0.0 0.0 0.00 0.00 0.00 94 1018.9
20260903122005 72 256 0.0 0.0 0.00 0.00 0.00 94 1018.9
20260903121805 72 256 0.0 0.0 0.00 0.00 0.00 94 1019.0
20260903121605 72 256 0.0 0.0 0.00 0.00 0.00 94 1019.0
20260903121407 71 256 0.0 0.0 0.00 0.00 0.00 93 1018.9
20260903121206 72 256 0.0 0.0 0.00 0.00 0.00 93 1018.9
20260903121008 71 256 0.0 0.0 0.00 0.00 0.00 93 1018.8
20260903120805 71 256 0.0 0.0 0.00 0.00 0.00 93 1018.9
20260903120607 71 256 0.0 0.0 0.00 0.00 0.00 93 1018.8
20260903120406 71 256 0.0 0.0 0.00 0.00 0.00 93 1018.8
20260903120206 71 256 0.0 0.0 0.00 0.00 0.00 93 1018.8
20260903120010 71 256 0.0 0.0 0.00 0.00 0.00 93 1018.8
20260903115805 71 256 0.0 0.0 0.00 0.00 0.00 93 1018.8
20260903115605 71 256 0.0 0.0 0.00 0.00 0.00 93 1018.8
20260903115407 71 256 0.0 0.0 0.00 0.00 0.00 93 1018.7
20260903115205 71 256 0.0 0.0 0.00 0.00 0.00 93 1018.8
20260903115007 71 256 0.0 0.0 0.00 0.00 0.00 93 1018.6
20260903114805 71 256 0.0 0.0 0.00 0.00 0.00 93 1018.7
20260903114605 71 256 0.0 0.0 0.00 0.00 0.00 93 1018.6
20260903114405 71 256 0.0 0.0 0.00 0.00 0.00 93 1018.6
20260903113605 71 256 0.0 0.0 0.00 0.00 0.00 93 1018.6
20260903113407 71 256 0.0 0.0 0.00 0.00 0.00 93 1018.5
20260903113205 71 256 0.0 0.0 0.00 0.00 0.00 93 1018.5
20260903113009 71 256 0.0 0.0 0.00 0.00 0.00 93 1018.5
20260903112805 71 256 0.0 0.0 0.00 0.00 0.00 93 1018.5
20260903112605 71 256 0.0 0.0 0.00 0.00 0.00 93 1018.5
20260903112407 71 256 0.0 0.0 0.00 0.00 0.00 93 1018.4
20260903112205 71 256 0.0 0.0 0.00 0.00 0.00 93 1018.5
20260903111806 71 256 0.0 0.0 0.00 0.00 0.00 92 1018.5
20260903111605 71 256 0.0 0.0 0.00 0.00 0.00 92 1018.4
20260903111407 71 256 0.0 0.0 0.00 0.00 0.00 92 1018.4
20260903111205 71 256 0.0 0.0 0.00 0.00 0.00 92 1018.4
20260903111007 71 256 0.0 0.0 0.00 0.00 0.00 92 1018.5
20260903110807 71 256 0.0 0.0 0.00 0.00 0.00 92 1018.4
20260903110606 71 256 0.0 0.0 0.00 0.00 0.00 92 1018.4
20260903110409 71 256 0.0 0.0 0.00 0.00 0.00 92 1018.4
20260903110205 72 256 0.0 0.0 0.00 0.00 0.00 92 1018.4
20260903110010 72 256 0.0 0.0 0.00 0.00 0.00 92 1018.3
20260903105805 72 256 0.0 0.0 0.00 0.00 0.00 93 1018.3
20260903105605 72 256 0.0 0.0 0.00 0.00 0.00 92 1018.4
20260903105407 72 256 0.0 0.0 0.00 0.00 0.00 93 1018.3
20260903105205 72 256 0.0 0.0 0.00 0.00 0.00 93 1018.3
20260903105008 72 256 0.0 0.0 0.00 0.00 0.00 93 1018.2
20260903104806 72 256 0.0 0.0 0.00 0.00 0.00 93 1018.3
20260903104605 72 256 0.0 0.0 0.00 0.00 0.00 93 1018.3
20260903104407 72 256 0.0 0.0 0.00 0.00 0.00 92 1018.3
20260903104205 72 256 0.0 0.0 0.00 0.00 0.00 92 1018.3
20260903104007 72 256 0.0 0.0 0.00 0.00 0.00 92 1018.2
20260903103805 72 256 0.0 0.0 0.00 0.00 0.00 92 1018.3
20260903103605 72 256 0.0 0.0 0.00 0.00 0.00 92 1018.3
20260903103407 72 256 0.0 0.0 0.00 0.00 0.00 92 1018.2
20260903103205 72 256 0.0 0.0 0.00 0.00 0.00 92 1018.2
20260903103007 72 256 0.0 0.0 0.00 0.00 0.00 92 1018.1
20260903102805 72 256 0.0 0.0 0.00 0.00 0.00 92 1018.2
20260903102605 72 256 0.0 0.0 0.00 0.00 0.00 92 1018.2
20260903102206 72 256 0.0 0.0 0.00 0.00 0.00 92 1018.2
20260903102008 72 256 0.0 0.0 0.00 0.00 0.00 92 1018.2
20260903101806 72 256 0.0 0.0 0.00 0.00 0.00 92 1018.1
20260903101407 72 256 0.0 0.0 0.00 0.00 0.00 92 1018.2
20260903101205 72 256 0.0 0.0 0.00 0.00 0.00 92 1018.3
20260903101009 72 256 0.0 0.0 0.00 0.00 0.00 92 1018.3
20260903100805 72 256 0.0 0.0 0.00 0.00 0.00 92 1018.2
20260903100605 72 256 0.0 0.0 0.00 0.00 0.00 92 1018.1
20260903100407 72 256 0.0 0.0 0.00 0.00 0.00 91 1018.1
20260903100205 72 256 0.0 0.0 0.00 0.00 0.00 91 1018.3
20260903100010 72 256 0.0 0.0 0.00 0.00 0.00 91 1018.2
20260903095805 72 256 0.0 0.0 0.00 0.00 0.00 91 1018.1
20260903095605 72 256 0.0 0.0 0.00 0.00 0.00 91 1018.2
20260903095407 72 256 0.0 0.0 0.00 0.00 0.00 92 1018.2
20260903095207 72 256 0.0 0.0 0.00 0.00 0.00 91 1018.2
20260903095007 72 256 0.0 0.0 0.00 0.00 0.00 91 1018.2
20260903094805 72 256 0.0 0.0 0.00 0.00 0.00 91 1018.2
20260903094407 72 256 0.0 0.0 0.00 0.00 0.00 92 1018.2
20260903094205 72 256 0.0 0.0 0.00 0.00 0.00 92 1018.1
20260903093805 72 256 0.0 0.0 0.00 0.00 0.00 92 1018.2
20260903093605 73 256 0.0 0.0 0.00 0.00 0.00 92 1018.2
20260903093407 73 256 0.0 0.0 0.00 0.00 0.00 92 1018.1
20260903093009 73 256 0.0 0.0 0.00 0.00 0.00 92 1018.1
20260903092805 73 256 0.0 0.0 0.00 0.00 0.00 91 1018.0
20260903092605 73 256 0.0 0.0 0.00 0.00 0.00 92 1018.1
20260903092407 73 256 0.0 0.0 0.00 0.00 0.00 92 1018.0
20260903092008 73 256 0.0 0.0 0.00 0.00 0.00 92 1018.0
20260903091805 73 256 0.0 0.0 0.00 0.00 0.00 92 1018.1
20260903091407 73 256 0.0 0.0 0.00 0.00 0.00 91 1018.1
20260903091205 73 256 0.0 0.0 0.00 0.00 0.00 91 1018.0
20260903091007 73 256 0.0 0.0 0.00 0.00 0.00 91 1018.1
20260903090805 73 256 0.0 0.0 0.00 0.00 0.00 91 1018.1
20260903090605 73 256 0.0 0.0 0.00 0.00 0.00 92 1018.0
20260903090407 73 256 0.0 0.0 0.00 0.00 0.00 92 1018.0
20260903090207 73 256 0.0 0.0 0.00 0.00 0.00 92 1018.0
20260903090010 73 256 0.0 0.0 0.00 0.00 0.00 92 1018.0
20260903085605 73 256 0.0 0.0 0.00 0.00 0.00 92 1018.0
20260903085407 73 256 0.0 0.0 0.00 0.00 0.00 93 1018.0
20260903085205 73 256 0.0 0.0 0.00 0.00 0.00 92 1018.0
20260903085007 73 194 0.0 0.0 0.00 0.00 0.00 92 1018.0
20260903084805 73 194 0.0 0.0 0.00 0.00 0.00 92 1017.9
20260903084605 73 194 0.0 0.0 0.00 0.00 0.00 92 1017.8
20260903084407 73 194 0.0 0.0 0.00 0.00 0.00 92 1017.8
20260903084007 73 194 0.0 0.0 0.00 0.00 0.00 91 1017.8
20260903083805 73 194 0.0 0.0 0.00 0.00 0.00 91 1017.7
20260903083605 73 194 0.0 0.0 0.00 0.00 0.00 91 1017.7
20260903083407 73 194 0.0 0.0 0.00 0.00 0.00 91 1017.7
20260903083205 73 194 0.0 0.0 0.00 0.00 0.00 91 1017.8
20260903082805 73 194 0.0 0.0 0.00 0.00 0.00 90 1017.7
20260903082605 73 194 0.0 0.0 0.00 0.00 0.00 91 1017.7
20260903082407 73 194 0.0 0.0 0.00 0.00 0.00 91 1017.7
20260903082205 73 194 0.0 0.0 0.00 0.00 0.00 91 1017.7
20260903082009 73 194 0.0 0.0 0.00 0.00 0.00 91 1017.7
20260903081805 73 194 0.0 0.0 0.00 0.00 0.00 90 1017.8
20260903081605 73 194 0.0 0.0 0.00 0.00 0.00 90 1017.7
20260903081407 73 194 0.0 0.0 0.00 0.00 0.00 91 1017.7
20260903081007 73 194 0.0 0.0 0.00 0.00 0.00 91 1017.7
20260903080805 73 194 0.0 0.0 0.00 0.00 0.00 91 1017.7
20260903080605 73 194 0.0 0.0 0.00 0.00 0.00 90 1017.6
20260903080406 73 194 0.0 0.0 0.00 0.00 0.00 90 1017.7
20260903080010 73 194 0.0 0.0 0.00 0.00 0.00 90 1017.7
20260903075805 73 194 0.0 0.0 0.00 0.00 0.00 90 1017.7
20260903075605 73 194 0.0 0.0 0.00 0.00 0.00 90 1017.7
20260903075408 74 194 0.0 0.0 0.00 0.00 0.00 90 1017.7
20260903075205 74 194 0.0 0.0 0.00 0.00 0.00 90 1017.7
20260903075005 74 194 0.0 0.0 0.00 0.00 0.00 90 1017.7
20260903074805 74 194 0.0 0.0 0.00 0.00 0.00 90 1017.7
20260903074605 74 194 0.0 0.0 0.00 0.00 0.00 90 1017.7
20260903074408 74 194 0.0 0.0 0.00 0.00 0.00 90 1017.7
20260903074205 74 194 0.0 0.0 0.00 0.00 0.00 90 1017.6
20260903074005 74 194 0.0 0.0 0.00 0.00 0.00 90 1017.6
20260903073805 74 194 0.0 0.0 0.00 0.00 0.00 90 1017.6
20260903073605 74 194 0.0 0.0 0.00 0.00 0.00 90 1017.5
20260903073408 74 194 0.0 0.0 0.00 0.00 0.00 90 1017.6
20260903073007 74 194 0.0 0.0 0.00 0.00 0.00 90 1017.6
20260903072805 74 194 0.0 0.0 0.00 0.00 0.00 90 1017.6
20260903072605 74 194 0.0 0.0 0.00 0.00 0.00 90 1017.6
20260903072408 74 194 0.0 0.0 0.00 0.00 0.00 91 1017.6
20260903072205 74 194 0.0 0.0 0.00 0.00 0.00 91 1017.5
20260903072005 74 194 0.0 0.0 0.00 0.00 0.00 91 1017.6
20260903071805 74 194 0.0 0.0 0.00 0.00 0.00 92 1017.5
20260903071605 74 194 0.0 0.0 0.00 0.00 0.00 92 1017.5
20260903071407 74 194 0.0 0.0 0.00 0.00 0.00 92 1017.4
20260903071205 74 194 0.0 0.0 0.00 0.00 0.00 92 1017.5
20260903071005 74 194 0.0 0.0 0.00 0.00 0.00 91 1017.6
20260903070805 74 194 0.0 0.0 0.00 0.00 0.00 90 1017.5
20260903070605 74 194 0.0 0.0 0.00 0.00 0.00 89 1017.6
20260903070007 74 194 0.0 0.0 0.00 0.00 0.00 89 1017.5
20260903065806 74 194 0.0 0.0 0.00 0.00 0.00 89 1017.4
20260903065605 74 194 0.0 0.0 0.00 0.00 0.00 89 1017.4
20260903065408 74 194 0.0 0.0 0.00 0.00 0.00 89 1017.4
20260903065205 74 194 0.0 0.0 0.00 0.00 0.00 89 1017.4
20260903065005 74 194 0.0 0.0 0.00 0.00 0.00 90 1017.3
20260903064805 74 194 0.0 0.0 0.00 0.00 0.00 90 1017.4
20260903064605 74 194 0.0 0.0 0.00 0.00 0.00 89 1017.5
20260903064408 74 194 0.0 0.0 0.00 0.00 0.00 89 1017.5
20260903064205 74 194 0.0 0.0 0.00 0.00 0.00 89 1017.6
20260903064007 74 194 0.0 0.0 0.00 0.00 0.00 88 1017.7
20260903063805 74 194 0.0 0.0 0.00 0.00 0.00 88 1017.6
20260903063605 74 194 0.0 0.0 0.00 0.00 0.00 88 1017.7
20260903063205 74 194 0.0 0.0 0.00 0.00 0.00 88 1017.7
20260903062805 75 194 0.0 0.0 0.00 0.00 0.00 87 1017.8
20260903062605 75 194 0.0 0.0 0.00 0.00 0.00 88 1017.7
20260903062407 75 194 0.0 0.0 0.00 0.00 0.00 87 1017.7
20260903062205 75 194 0.0 0.0 0.00 0.00 0.00 87 1017.8
20260903062009 75 194 0.0 0.0 0.00 0.00 0.00 87 1017.7
20260903061805 75 194 0.0 0.0 0.00 0.00 0.00 87 1017.7
20260903061605 75 194 0.0 0.0 0.00 0.00 0.00 87 1017.8
20260903061407 75 194 0.0 0.0 0.00 0.00 0.00 87 1017.8
20260903061205 75 194 0.0 0.0 0.00 0.00 0.00 87 1017.8
20260903061007 75 194 0.0 0.0 0.00 0.00 0.00 87 1017.8
20260903060805 75 194 0.0 0.0 0.00 0.00 0.00 87 1017.8
20260903060605 75 194 0.0 0.0 0.00 0.00 0.00 87 1017.9
20260903060407 75 194 0.0 0.0 0.00 0.00 0.00 87 1017.9
20260903060205 75 194 0.0 0.0 0.00 0.00 0.00 87 1017.9
20260903060010 75 194 0.0 0.0 0.00 0.00 0.00 87 1018.0
20260903055605 75 194 0.0 0.0 0.00 0.00 0.00 87 1018.0
20260903055407 75 194 0.0 0.0 0.00 0.00 0.00 87 1017.9
20260903055007 75 194 0.0 0.0 0.00 0.00 0.00 87 1018.0
20260903054805 75 194 0.0 0.0 0.00 0.00 0.00 87 1017.9
20260903054605 75 194 0.0 0.0 0.00 0.00 0.00 87 1017.9
20260903054406 76 194 0.0 0.0 0.00 0.00 0.00 87 1017.9
20260903054205 76 194 0.0 0.0 0.00 0.00 0.00 87 1017.9
20260903054007 76 194 0.0 0.0 0.00 0.00 0.00 87 1017.9
20260903053805 76 194 0.0 0.0 0.00 0.00 0.00 87 1017.9
20260903053605 76 194 0.0 0.0 0.00 0.00 0.00 87 1017.9
20260903053407 76 194 0.0 0.0 0.00 0.00 0.00 86 1018.0
20260903053205 76 194 0.0 0.0 0.00 0.00 0.00 87 1017.9
20260903053007 76 194 0.0 0.0 0.00 0.00 0.00 86 1018.0
20260903052605 76 194 0.0 0.0 0.00 0.00 0.00 86 1018.0
20260903052407 76 194 0.0 0.0 0.00 0.00 0.00 86 1018.1
20260903052205 76 194 0.0 0.0 0.00 0.00 0.00 86 1018.1
20260903052007 76 194 0.0 0.0 0.00 0.00 0.00 87 1018.1
20260903051805 76 194 0.0 0.0 0.00 0.00 0.00 86 1018.1
20260903051605 76 194 0.0 0.0 0.00 0.00 0.00 86 1018.1
20260903051406 76 194 0.0 0.0 0.00 0.00 0.00 86 1018.1
20260903051008 76 194 0.0 0.0 0.00 0.00 0.00 85 1018.2
20260903050605 76 194 0.0 0.0 0.00 0.00 0.00 85 1018.2
20260903050407 76 194 0.0 0.0 0.00 0.00 0.00 86 1018.1
20260903050206 76 194 0.0 0.0 0.00 0.00 0.00 86 1018.1
20260903045605 77 194 0.0 0.0 0.00 0.00 0.00 87 1018.2
20260903045405 77 194 0.0 0.0 0.00 0.00 0.00 86 1018.2
20260903045205 77 194 0.0 0.0 0.00 0.00 0.00 85 1018.2
20260903045007 77 194 0.0 0.0 0.00 0.00 0.00 85 1018.1
20260903044805 77 194 0.0 0.0 0.00 0.00 0.00 85 1018.2
20260903044607 77 194 0.0 0.0 0.00 0.00 0.00 85 1018.2
20260903044205 77 194 0.0 0.0 0.00 0.00 0.00 85 1018.1
20260903043806 77 194 0.0 0.0 0.00 0.00 0.00 85 1018.1
20260903043608 77 194 0.0 0.0 0.00 0.00 0.00 85 1018.1
20260903043405 77 194 0.0 0.0 0.00 0.00 0.00 85 1018.2
20260903043205 77 194 0.0 0.0 0.00 0.00 0.00 86 1018.1
20260903043005 77 194 0.0 0.0 0.00 0.00 0.00 86 1018.2
20260903042805 77 194 0.0 0.0 0.00 0.00 0.00 86 1018.2
20260903042609 77 194 0.0 0.0 0.00 0.00 0.00 85 1018.1
20260903042206 77 194 0.0 0.0 0.00 0.00 0.00 84 1018.1
20260903042005 77 194 0.0 0.0 0.00 0.00 0.00 84 1018.1
20260903041805 77 194 0.0 0.0 0.00 0.00 0.00 84 1018.1
20260903041608 77 194 0.0 0.0 0.00 0.00 0.00 84 1018.0
20260903041405 77 194 0.0 0.0 0.00 0.00 0.00 84 1018.1
20260903041005 77 194 0.0 0.0 0.00 0.00 0.00 84 1018.1
20260903040807 77 194 0.0 0.0 0.00 0.00 0.00 84 1018.2
20260903040405 77 194 0.0 0.0 0.00 0.00 0.00 84 1018.1
20260903040207 77 194 0.0 0.0 0.00 0.00 0.00 84 1018.1
20260903040014 77 194 0.0 0.0 0.00 0.00 0.00 84 1018.2
20260903035808 77 194 0.0 0.0 0.00 0.00 0.00 84 1018.2
20260903035608 77 194 0.0 0.0 0.00 0.00 0.00 84 1018.2
20260903035409 77 194 0.0 0.0 0.00 0.00 0.00 84 1018.3
20260903035209 77 194 0.0 0.0 0.00 0.00 0.00 84 1018.3
20260903035010 77 194 0.0 0.0 0.00 0.00 0.00 84 1018.3
20260903034808 77 194 0.0 0.0 0.00 0.00 0.00 82 1018.4
20260903034409 77 194 0.0 0.0 0.00 0.00 0.00 82 1018.3
20260903034208 78 194 0.0 0.0 0.00 0.00 0.00 82 1018.3
20260903034010 78 194 0.0 0.0 0.00 0.00 0.00 82 1018.4
20260903033808 78 194 0.0 0.0 0.00 0.00 0.00 82 1018.4
20260903033608 78 194 0.0 0.0 0.00 0.00 0.00 82 1018.4
20260903033409 78 194 0.0 0.0 0.00 0.00 0.00 82 1018.5
20260903033009 78 194 0.0 0.0 0.00 0.00 0.00 82 1018.4
20260903032807 78 194 0.0 0.0 0.00 0.00 0.00 82 1018.5
20260903032608 78 194 0.0 0.0 0.00 0.00 0.00 82 1018.4
20260903032207 78 194 0.0 0.0 0.00 0.00 0.00 81 1018.5
20260903032010 78 194 0.0 0.0 0.00 0.00 0.00 81 1018.5
20260903031809 78 194 0.0 0.0 0.00 0.00 0.00 81 1018.5
20260903031409 78 194 0.0 0.0 0.00 0.00 0.00 81 1018.4
20260903031207 78 194 0.0 0.0 0.00 0.00 0.00 81 1018.5
20260903030207 79 194 0.0 0.0 0.00 0.00 0.00 81 1018.5
20260903030012 79 194 0.0 0.0 0.00 0.00 0.00 80 1018.4
20260903025807 79 194 0.0 0.0 0.00 0.00 0.00 81 1018.4
20260903025607 79 194 0.0 0.0 0.00 0.00 0.00 81 1018.4
20260903025411 79 194 0.0 0.0 0.00 0.00 0.00 80 1018.5
20260903025207 79 194 0.0 0.0 0.00 0.00 0.00 80 1018.5
20260903025011 79 194 0.0 0.0 0.00 0.00 0.00 80 1018.4
20260903024807 79 194 0.0 0.0 0.00 0.00 0.00 81 1018.5
20260903024607 79 194 0.0 0.0 0.00 0.00 0.00 82 1018.5
20260903024409 79 194 0.0 0.0 0.00 0.00 0.00 79 1018.6
20260903024207 79 194 0.0 0.0 0.00 0.00 0.00 79 1018.5
20260903024009 79 194 0.0 0.0 0.00 0.00 0.00 79 1018.5
20260903023807 79 194 0.0 0.0 0.00 0.00 0.00 79 1018.6
20260903023607 79 194 0.0 0.0 0.00 0.00 0.00 79 1018.5
20260903023208 80 194 0.0 0.0 0.00 0.00 0.00 78 1018.4
20260903023009 80 194 0.0 0.0 0.00 0.00 0.00 78 1018.5
20260903022607 80 194 0.0 0.0 0.00 0.00 0.00 78 1018.6
20260903022409 80 194 0.0 0.0 0.00 0.00 0.00 78 1018.5
20260903021807 80 194 0.0 0.0 0.00 0.00 0.00 77 1018.4
20260903021409 80 194 0.0 0.0 0.00 0.00 0.00 77 1018.4
20260903021208 80 194 0.0 0.0 0.00 0.00 0.00 77 1018.3
20260903021010 81 194 0.0 0.0 0.00 0.00 0.00 77 1018.4
20260903020808 81 194 0.0 0.0 0.00 0.00 0.00 77 1018.3
20260903020607 81 194 0.0 0.0 0.00 0.00 0.00 77 1018.4
20260903020207 81 194 0.0 0.0 0.00 0.00 0.00 77 1018.3
20260903020012 81 194 0.0 0.0 0.00 0.00 0.00 77 1018.3
20260903015807 81 194 0.0 0.0 0.00 0.00 0.00 77 1018.4
20260903015607 81 194 0.0 0.0 0.00 0.00 0.00 77 1018.3
20260903015209 81 194 0.0 0.0 0.00 0.00 0.00 77 1018.3
20260903015009 81 194 0.0 0.0 0.00 0.00 0.00 77 1018.3
20260903014808 81 194 0.0 0.0 0.00 0.00 0.00 77 1018.3
20260903014607 82 194 0.0 0.0 0.00 0.00 0.00 77 1018.3
20260903014409 82 194 0.0 0.0 0.00 0.00 0.00 76 1018.2
20260903014207 82 194 0.0 0.0 0.00 0.00 0.00 77 1018.2
20260903014011 82 194 0.0 0.0 0.00 0.00 0.00 77 1018.2
20260903013807 82 194 0.0 0.0 0.00 0.00 0.00 77 1018.2
20260903013411 82 194 0.0 0.0 0.00 0.00 0.00 76 1018.1
20260903013209 82 194 0.0 0.0 0.00 0.00 0.00 76 1018.0
20260903013010 82 194 0.0 0.0 0.00 0.00 0.00 76 1018.1
20260903012807 82 194 0.0 0.0 0.00 0.00 0.00 75 1018.1
20260903012607 82 194 0.0 0.0 0.00 0.00 0.00 75 1018.0
20260903012409 82 194 0.0 0.0 0.00 0.00 0.00 74 1018.0
20260903012207 83 194 0.0 0.0 0.00 0.00 0.00 74 1018.0
20260903012009 83 194 0.0 0.0 0.00 0.00 0.00 74 1018.0
20260903011807 83 194 0.0 0.0 0.00 0.00 0.00 75 1017.9
20260903011608 83 194 0.0 0.0 0.00 0.00 0.00 75 1017.9
20260903011207 83 194 0.0 0.0 0.00 0.00 0.00 74 1017.9
20260903011010 83 194 0.0 0.0 0.00 0.00 0.00 74 1017.9
20260903010808 84 194 0.0 0.0 0.00 0.00 0.00 75 1017.9
20260903010607 84 194 0.0 0.0 0.00 0.00 0.00 75 1017.8
20260903010409 84 194 0.0 0.0 0.00 0.00 0.00 74 1017.8
20260903010207 84 194 0.0 0.0 0.00 0.00 0.00 73 1017.8
20260903010012 84 194 0.0 0.0 0.00 0.00 0.00 73 1017.8
20260903005807 84 194 0.0 0.0 0.00 0.00 0.00 73 1017.8
20260903005409 84 194 0.0 0.0 0.00 0.00 0.00 73 1017.7
20260903005207 85 194 0.0 0.0 0.00 0.00 0.00 72 1017.7
20260903005009 85 194 0.0 0.0 0.00 0.00 0.00 72 1017.7
20260903004807 85 194 0.0 0.0 0.00 0.00 0.00 71 1017.7
20260903004409 85 194 0.0 0.0 0.00 0.00 0.00 71 1017.6
20260903004207 85 194 0.0 0.0 0.00 0.00 0.00 71 1017.5
20260903004009 85 194 0.0 0.0 0.00 0.00 0.00 70 1017.5
20260903003807 85 194 0.0 0.0 0.00 0.00 0.00 69 1017.5
20260903003607 86 194 0.0 0.0 0.00 0.00 0.00 69 1017.5
20260903003409 86 194 0.0 0.0 0.00 0.00 0.00 69 1017.4
20260903003207 86 194 0.0 0.0 0.00 0.00 0.00 69 1017.6
20260903003010 86 194 0.0 0.0 0.00 0.00 0.00 69 1017.5
20260903002807 86 194 0.0 0.0 0.00 0.00 0.00 68 1017.4
20260903002609 86 194 0.0 0.0 0.00 0.00 0.00 67 1017.4
20260903002409 87 194 0.0 0.0 0.00 0.00 0.00 68 1017.4
20260903002207 87 194 0.0 0.0 0.00 0.00 0.00 67 1017.4
20260903002010 87 194 0.0 0.0 0.00 0.00 0.00 67 1017.4
20260903001807 87 194 0.0 0.0 0.00 0.00 0.00 67 1017.4
20260903001607 87 194 0.0 0.0 0.00 0.00 0.00 66 1017.3
20260903001409 87 194 0.0 0.0 0.00 0.00 0.00 66 1017.3
20260903001010 88 194 0.0 0.0 0.00 0.00 0.00 66 1017.2
20260903000609 88 194 0.0 0.0 0.00 0.00 0.00 66 1017.1
20260903000410 88 194 0.0 0.0 0.00 0.00 0.00 65 1017.1
20260903000207 88 194 0.0 0.0 0.00 0.00 0.00 64 1017.1
20260903000012 89 194 0.0 0.0 0.00 0.00 0.00 64 1017.1
20260902235806 89 194 0.0 0.0 0.00 0.00 0.00 64 1017.1
20260902235606 89 194 0.0 0.0 0.00 0.00 0.00 64 1017.0
20260902235408 89 194 0.0 0.0 0.00 0.00 0.00 64 1017.1
20260902235206 89 194 0.0 0.0 0.00 0.00 0.00 64 1017.1
20260902235008 90 194 0.0 0.0 0.00 0.00 0.00 63 1017.1
20260902234807 90 194 0.0 0.0 0.00 0.00 0.00 63 1017.2
20260902234607 90 194 0.0 0.0 0.00 0.00 0.00 63 1017.1
20260902234408 90 194 0.0 0.0 0.00 0.00 0.00 62 1017.1
20260902234206 90 194 0.0 0.0 0.00 0.00 0.00 62 1017.2
20260902234009 90 194 0.0 0.0 0.00 0.00 0.00 62 1017.1
20260902233806 91 194 0.0 0.0 0.00 0.00 0.00 62 1017.1
20260902233606 91 194 0.0 0.0 0.00 0.00 0.00 62 1017.3
20260902233408 91 194 0.0 0.0 0.00 0.00 0.00 62 1017.1
20260902233207 91 194 0.0 0.0 0.00 0.00 0.00 62 1017.1
20260902233009 91 194 0.0 0.0 0.00 0.00 0.00 61 1017.1
20260902232807 92 194 0.0 0.0 0.00 0.00 0.00 60 1017.1
20260902232606 92 194 0.0 0.0 0.00 0.00 0.00 60 1017.1
20260902232408 92 194 0.0 0.0 0.00 0.00 0.00 60 1017.1
20260902232207 92 194 0.0 0.0 0.00 0.00 0.00 60 1017.1
20260902232009 92 194 0.0 0.0 0.00 0.00 0.00 59 1017.1
20260902231406 93 194 0.0 0.0 0.00 0.00 0.00 58 1017.0
20260902231008 93 194 0.0 0.0 0.00 0.00 0.00 57 1017.0
20260902230806 93 194 0.0 0.0 0.00 0.00 0.00 57 1017.1
20260902230606 93 194 0.0 0.0 0.00 0.00 0.00 57 1017.1
20260902230408 93 194 0.0 0.0 0.00 0.00 0.00 57 1017.1
20260902230206 93 194 0.0 0.0 0.00 0.00 0.00 57 1017.1
20260902230011 94 194 0.0 0.0 0.00 0.00 0.00 56 1017.1
20260902225807 94 194 0.0 0.0 0.00 0.00 0.00 56 1017.1
20260902225606 94 194 0.0 0.0 0.00 0.00 0.00 55 1017.1
20260902225411 94 194 0.0 0.0 0.00 0.00 0.00 55 1017.1
20260902225207 94 194 0.0 0.0 0.00 0.00 0.00 54 1017.2
20260902225007 94 194 0.0 0.0 0.00 0.00 0.00 54 1017.2
20260902224806 94 194 0.0 0.0 0.00 0.00 0.00 54 1017.3
20260902224206 94 194 0.0 0.0 0.00 0.00 0.00 55 1017.3
20260902224006 94 202 0.0 0.0 0.00 0.00 0.00 55 1017.2
20260902223806 94 202 0.0 0.0 0.00 0.00 0.00 55 1017.3
20260902223607 94 211 0.0 0.0 0.00 0.00 0.00 55 1017.2
20260902223410 95 214 0.0 0.0 0.00 0.00 0.00 55 1017.2
20260902223206 95 194 0.0 0.0 0.00 0.00 0.00 55 1017.3
20260902223007 95 193 0.0 0.0 0.00 0.00 0.00 56 1017.3
20260902222806 95 193 0.0 0.0 0.00 0.00 0.00 55 1017.3
20260902222606 95 193 0.0 0.0 0.00 0.00 0.00 54 1017.2
20260902222410 95 193 0.0 0.0 0.00 0.00 0.00 54 1017.3
20260902222207 95 193 0.0 0.0 0.00 0.00 0.00 55 1017.3
20260902222007 95 193 0.0 0.0 0.00 0.00 0.00 55 1017.3
20260902221806 95 193 0.0 0.0 0.00 0.00 0.00 54 1017.4
20260902221607 94 193 0.0 0.0 0.00 0.00 0.00 52 1017.3
20260902221408 95 193 0.0 0.0 0.00 0.00 0.00 52 1017.3
20260902221207 95 148 0.0 0.0 0.00 0.00 0.00 54 1017.3
20260902221006 95 84 0.0 0.0 0.00 0.00 0.00 55 1017.4
20260902220408 95 84 0.0 0.0 0.00 0.00 0.00 51 1017.4
20260902220206 95 84 0.0 0.0 0.00 0.00 0.00 50 1017.4
20260902215806 95 142 0.0 0.0 0.00 0.00 0.00 50 1017.4
20260902215606 95 142 0.0 0.0 0.00 0.00 0.00 51 1017.4
20260902215408 95 226 0.0 0.0 0.00 0.00 0.00 51 1017.5
20260902215207 95 226 0.0 0.0 0.00 0.00 0.00 50 1017.4
20260902215009 95 209 0.0 0.0 0.00 0.00 0.00 51 1017.4
20260902214806 95 212 0.0 0.0 0.00 0.00 0.00 52 1017.4
20260902214408 95 207 0.0 0.0 0.00 0.00 0.00 54 1017.4